Location: Rounton
(54.4000°N, 1.3500°W)
Time: 14:18:19
(UTC+00:00)

Transit 2A - Pass Details

Date: 05 December 2021
Orbit: 591 x 967 km, 66.7° (Epoch: 17 January)

Event Time Altitude Azimuth Distance (km) Brightness Sun altitude
Rises 01:29:04 0° 237° (WSW) 3,398 - -53.5°
Reaches altitude 10° 01:31:29 10° 241° (WSW) 2,517 - -53.3°
Maximum altitude 01:37:19 59° 321° (NW) 1,066 - -52.8°
Drops below altitude 10° 01:43:35 10° 40° (NE) 2,699 - -52.1°
Exits shadow 01:44:02 - 41° (NE) 2,858 9.4 -52.1°
Sets 01:46:16 0° 45° (NE) 3,662 10.1 -51.9°
